sat.trackr.live / text

‹ back to catalog

STARLINK-36422

NORAD 67344 · 2026-003L

PAYLOAD ACTIVE UNKNOWN

§ Identity

Operator
Country
US
Launch date
2026-01-09
Launch site
AFETR
Launch vehicle
Mass (kg)
RCS (m²)

Purposes: comms

External: N2YO · Heavens-Above · Gunter

§ Orbital elements

Epoch: 2026-09-19T06:36:09.224064Z

Period
94.27 min
Inclination
42.9996°
Eccentricity
0.0001563
Mean motion
15.27581382 rev/d
Perigee alt
482.0 km
Apogee alt
484.1 km
Semi-major
6,861.2 km
B*
2.1908e-4
RAAN
213.5083°
Arg perigee
263.3208°
Mean anomaly
96.7466°
Rev number
3,843

§ Raw data

STARLINK-364221 67344U 26003L   26262.27510676  .00005772  00000+0  21908-3 0  99902 67344  42.9996 213.5083 0001563 263.3208  96.7466 15.27581382 38434

JSON: /api/v1/satellites/67344 · /tle

For live sub-satellite position, see the globe view (requires WebGL).

§ Visibility from observer

Set your observer location to see the next 7 days of passes ≥ 10°. The values pass through the URL so the page stays shareable.

No JS? Fill the form by hand. The geolocation button needs JavaScript.